Hourly Data Report for May 30, 2012

All times are specified in Local Standard Time (LST). Add 1 hour to adjust for Daylight Saving Time where and when it is observed.

HAMILTON A
ONTARIO

43°10'25.000" N
79°56'06.000" W
237.70 m
6153193
71263
YHM

Download Data

Hourly Data (May 2012)
Hourly Data Report for May 30, 2012
Temp Definition
°C
Dew Point Temp Definition
°C
Rel Hum Definition
%
Wind Dir Definition
10's deg

Wind Spd Definition
km/h
Visibility Definition
km
Stn Press Definition
kPa
Hmdx Definition


Wind Chill Definition


Weather Definition


TIME
00:00 16.6 9.8 64 23 6 10.0 97.94     LegendNANA
01:00 16.4 11.2 71 29 10 10.0 97.94     Mostly Cloudy
02:00 15.4 11.4 77 25 8 10.0 97.95     LegendNANA
03:00 16.4 9.4 63 32 12 10.0 97.97     LegendNANA
04:00 14.2 8.9 70 32 10 10.0 97.99     Mostly Cloudy
05:00 13.4 8.3 71 33 6 10.0 98.00     LegendNANA
06:00 13.7 10.0 78 22 6 10.0 98.07     LegendNANA
07:00 15.7 10.3 70 25 4 10.0 98.11     Mainly Clear
08:00 18.1 8.8 54 32 9 10.0 98.10     LegendNANA
09:00 19.2 9.8 54 26 6 10.0 98.11     LegendNANA
10:00 21.0 8.4 44 26 15 10.0 98.10     Mainly Clear
11:00 20.7 8.2 44 32 17 10.0 98.09     LegendNANA
12:00 21.4 6.7 38 28 10 10.0 98.04     LegendNANA
13:00 21.5 6.4 37 29 23 10.0 98.04     Mostly Cloudy
14:00 21.5 6.8 38 30 18 10.0 98.00     LegendNANA
15:00 21.3 6.6 38 27 19 10.0 98.04     LegendNANA
16:00 21.3 5.8 36 26 23 10.0 98.06     Mostly Cloudy
17:00 19.9 6.1 40 28 21 10.0 98.09     LegendNANA
18:00 19.2 8.9 51 33 18 10.0 98.12     LegendNANA
19:00 17.6 8.0 53 32 16 10.0 98.17     Mostly Cloudy
20:00 16.1 8.2 59 32 13 10.0 98.20     LegendNANA
21:00 15.4 8.9 65 32 15 10.0 98.30     LegendNANA
22:00 14.5 8.3 66 33 13 10.0 98.33     Mostly Cloudy
23:00 13.5 7.6 67 33 14 10.0 98.34     LegendNANA

Notes on Data Quality.

Legend

  • E = Estimated
  • M = Missing
  • NA = Not Available
Date modified: